Time,TemperatureF,DewpointF,PressureIn,WindDirection,WindDirectionDegrees,WindSpeedMPH,WindSpeedGustMPH,Humidity,HourlyPrecipIn,Conditions,Clouds,dailyrainin,SolarRadiationWatts/m^2,SoftwareType,DateUTC
2013-04-21 00:03:00,44.0,34.0,-100.00,NNW,341,3.0,8.0,68,0.00,,,0.28,0.000000,,2013-04-21 04:03:00,
2013-04-21 00:13:00,44.0,34.0,-100.00,NNW,341,3.0,8.0,68,0.00,,,0.28,0.000000,,2013-04-21 04:13:00,
2013-04-21 00:23:00,44.0,34.0,-100.00,NNW,341,3.0,8.0,68,0.00,,,0.28,0.000000,,2013-04-21 04:23:00,
2013-04-21 00:33:00,44.0,34.0,-100.00,NNW,341,3.0,8.0,68,0.00,,,0.28,0.000000,,2013-04-21 04:33:00,
2013-04-21 01:02:00,43.0,28.0,-100.00,NNW,340,6.0,15.0,54,0.00,,,0.28,0.000000,,2013-04-21 05:02:00,
2013-04-21 01:12:00,43.0,28.0,-100.00,NNW,340,6.0,15.0,54,0.00,,,0.28,0.000000,,2013-04-21 05:12:00,
2013-04-21 01:22:00,43.0,28.0,-100.00,NNW,340,6.0,15.0,54,0.00,,,0.28,0.000000,,2013-04-21 05:22:00,
2013-04-21 01:32:00,43.0,28.0,-100.00,NNW,340,6.0,15.0,54,0.00,,,0.28,0.000000,,2013-04-21 05:32:00,
2013-04-21 02:01:00,42.0,30.0,-100.00,NNW,329,5.0,13.0,61,0.00,,,0.28,0.000000,,2013-04-21 06:01:00,
2013-04-21 02:12:00,42.0,30.0,-100.00,NNW,329,5.0,13.0,61,0.00,,,0.28,0.000000,,2013-04-21 06:12:00,
2013-04-21 02:22:00,42.0,30.0,-100.00,NNW,329,5.0,13.0,61,0.00,,,0.28,0.000000,,2013-04-21 06:22:00,
2013-04-21 02:32:00,42.0,30.0,-100.00,NNW,329,5.0,13.0,61,0.00,,,0.28,0.000000,,2013-04-21 06:32:00,
2013-04-21 03:02:00,41.0,26.0,-100.00,NW,325,5.0,14.0,55,0.00,,,0.28,0.000000,,2013-04-21 07:02:00,
2013-04-21 03:12:00,41.0,26.0,-100.00,NW,325,5.0,14.0,55,0.00,,,0.28,0.000000,,2013-04-21 07:12:00,
2013-04-21 03:22:00,41.0,26.0,-100.00,NW,325,5.0,14.0,55,0.00,,,0.28,0.000000,,2013-04-21 07:22:00,
2013-04-21 03:32:00,41.0,26.0,-100.00,NW,325,5.0,14.0,55,0.00,,,0.28,0.000000,,2013-04-21 07:32:00,
2013-04-21 04:02:00,40.0,25.0,-100.00,NNW,343,6.0,16.0,55,0.00,,,0.28,0.000000,,2013-04-21 08:02:00,
2013-04-21 04:12:00,40.0,25.0,-100.00,NNW,343,6.0,16.0,55,0.00,,,0.28,0.000000,,2013-04-21 08:12:00,
2013-04-21 04:22:00,40.0,25.0,-100.00,NNW,343,6.0,16.0,55,0.00,,,0.28,0.000000,,2013-04-21 08:22:00,
2013-04-21 04:32:00,40.0,25.0,-100.00,NNW,343,6.0,16.0,55,0.00,,,0.28,0.000000,,2013-04-21 08:32:00,
2013-04-21 05:02:00,38.0,23.0,-100.00,NNW,327,6.0,20.0,55,0.00,,,0.26,0.000000,,2013-04-21 09:02:00,
2013-04-21 05:12:00,38.0,23.0,-100.00,NNW,327,6.0,20.0,55,0.00,,,0.26,0.000000,,2013-04-21 09:12:00,
2013-04-21 05:21:00,38.0,23.0,-100.00,NNW,327,6.0,20.0,55,0.00,,,0.26,0.000000,,2013-04-21 09:21:00,
2013-04-21 05:32:00,38.0,23.0,-100.00,NNW,327,6.0,20.0,55,0.00,,,0.26,0.000000,,2013-04-21 09:32:00,
2013-04-21 06:03:00,38.0,23.0,-100.00,NNW,329,6.0,18.0,54,0.00,,,0.26,0.000000,,2013-04-21 10:03:00,
2013-04-21 06:12:00,38.0,23.0,-100.00,NNW,329,6.0,18.0,54,0.00,,,0.26,0.000000,,2013-04-21 10:12:00,
2013-04-21 06:22:00,38.0,23.0,-100.00,NNW,329,6.0,18.0,54,0.00,,,0.26,0.000000,,2013-04-21 10:22:00,
2013-04-21 06:32:00,38.0,23.0,-100.00,NNW,329,6.0,18.0,54,0.00,,,0.26,0.000000,,2013-04-21 10:32:00,
2013-04-21 07:03:00,39.0,25.0,-100.00,NNW,337,6.0,16.0,56,0.00,,,0.23,21.000000,,2013-04-21 11:03:00,
2013-04-21 07:12:00,39.0,25.0,-100.00,NNW,337,6.0,16.0,56,0.00,,,0.23,21.000000,,2013-04-21 11:12:00,
2013-04-21 07:22:00,39.0,25.0,-100.00,NNW,337,6.0,16.0,56,0.00,,,0.23,21.000000,,2013-04-21 11:22:00,
2013-04-21 07:34:00,39.0,25.0,-100.00,NNW,337,6.0,16.0,56,0.00,,,0.23,21.000000,,2013-04-21 11:34:00,
2013-04-21 08:03:00,41.0,25.0,-100.00,NNW,343,7.0,18.0,53,0.00,,,0.20,165.000000,,2013-04-21 12:03:00,
2013-04-21 08:12:00,41.0,25.0,-100.00,NNW,343,7.0,18.0,53,0.00,,,0.20,165.000000,,2013-04-21 12:12:00,
2013-04-21 08:22:00,41.0,25.0,-100.00,NNW,343,7.0,18.0,53,0.00,,,0.20,165.000000,,2013-04-21 12:22:00,
2013-04-21 08:32:00,41.0,25.0,-100.00,NNW,343,7.0,18.0,53,0.00,,,0.20,165.000000,,2013-04-21 12:32:00,
2013-04-21 09:01:00,42.0,24.0,-100.00,North,351,10.0,19.0,48,0.00,,,0.14,404.000000,,2013-04-21 13:01:00,
2013-04-21 09:12:00,42.0,24.0,-100.00,North,351,10.0,19.0,48,0.00,,,0.14,404.000000,,2013-04-21 13:12:00,
2013-04-21 09:22:00,42.0,24.0,-100.00,North,351,10.0,19.0,48,0.00,,,0.14,404.000000,,2013-04-21 13:22:00,
2013-04-21 09:32:00,42.0,24.0,-100.00,North,351,10.0,19.0,48,0.00,,,0.14,404.000000,,2013-04-21 13:32:00,
2013-04-21 10:02:00,44.0,23.0,-100.00,NNW,345,7.0,19.0,44,0.00,,,0.08,610.000000,,2013-04-21 14:02:00,
2013-04-21 10:11:00,44.0,23.0,-100.00,NNW,345,7.0,19.0,44,0.00,,,0.08,610.000000,,2013-04-21 14:11:00,
2013-04-21 10:22:00,44.0,23.0,-100.00,NNW,345,7.0,19.0,44,0.00,,,0.08,610.000000,,2013-04-21 14:22:00,
2013-04-21 10:32:00,44.0,23.0,-100.00,NNW,345,7.0,19.0,44,0.00,,,0.08,610.000000,,2013-04-21 14:32:00,
2013-04-21 11:02:00,46.0,22.0,-100.00,North,352,6.0,17.0,39,0.00,,,0.01,787.000000,,2013-04-21 15:02:00,
2013-04-21 11:11:00,46.0,22.0,-100.00,North,352,6.0,17.0,39,0.00,,,0.01,787.000000,,2013-04-21 15:11:00,
2013-04-21 11:22:00,46.0,22.0,-100.00,North,352,6.0,17.0,39,0.00,,,0.01,787.000000,,2013-04-21 15:22:00,
2013-04-21 11:33:00,46.0,22.0,-100.00,North,352,6.0,17.0,39,0.00,,,0.01,787.000000,,2013-04-21 15:33:00,
2013-04-21 12:03:00,49.0,25.0,-100.00,North,349,5.0,14.0,38,0.00,,,0.00,916.000000,,2013-04-21 16:03:00,
2013-04-21 12:13:00,49.0,25.0,-100.00,North,349,5.0,14.0,38,0.00,,,0.00,916.000000,,2013-04-21 16:13:00,
2013-04-21 12:23:00,49.0,25.0,-100.00,North,349,5.0,14.0,38,0.00,,,0.00,916.000000,,2013-04-21 16:23:00,
2013-04-21 12:33:00,49.0,25.0,-100.00,North,349,5.0,14.0,38,0.00,,,0.00,916.000000,,2013-04-21 16:33:00,
2013-04-21 13:02:00,49.0,24.0,-100.00,NNW,342,6.0,15.0,37,0.00,,,0.00,987.000000,,2013-04-21 17:02:00,
2013-04-21 13:12:00,49.0,24.0,-100.00,NNW,342,6.0,15.0,37,0.00,,,0.00,987.000000,,2013-04-21 17:12:00,
2013-04-21 13:23:00,49.0,24.0,-100.00,NNW,342,6.0,15.0,37,0.00,,,0.00,987.000000,,2013-04-21 17:23:00,
2013-04-21 13:32:00,49.0,24.0,-100.00,NNW,342,6.0,15.0,37,0.00,,,0.00,987.000000,,2013-04-21 17:32:00,
2013-04-21 14:02:00,50.0,24.0,-100.00,NNW,335,5.0,12.0,36,0.00,,,0.00,998.000000,,2013-04-21 18:02:00,
2013-04-21 14:11:00,50.0,24.0,-100.00,NNW,335,5.0,12.0,36,0.00,,,0.00,998.000000,,2013-04-21 18:11:00,
2013-04-21 14:22:00,50.0,24.0,-100.00,NNW,335,5.0,12.0,36,0.00,,,0.00,998.000000,,2013-04-21 18:22:00,
2013-04-21 14:33:00,50.0,24.0,-100.00,NNW,335,5.0,12.0,36,0.00,,,0.00,998.000000,,2013-04-21 18:33:00,
2013-04-21 15:02:00,51.0,22.0,-100.00,NNW,335,4.0,11.0,32,0.00,,,0.00,944.000000,,2013-04-21 19:02:00,
2013-04-21 15:12:00,51.0,22.0,-100.00,NNW,335,4.0,11.0,32,0.00,,,0.00,944.000000,,2013-04-21 19:12:00,
2013-04-21 15:22:00,51.0,22.0,-100.00,NNW,335,4.0,11.0,32,0.00,,,0.00,944.000000,,2013-04-21 19:22:00,
2013-04-21 15:32:00,51.0,22.0,-100.00,NNW,335,4.0,11.0,32,0.00,,,0.00,944.000000,,2013-04-21 19:32:00,
2013-04-21 16:02:00,51.0,22.0,-100.00,NNW,337,4.0,10.0,32,0.00,,,0.00,829.000000,,2013-04-21 20:02:00,
2013-04-21 16:11:00,51.0,22.0,-100.00,NNW,337,4.0,10.0,32,0.00,,,0.00,829.000000,,2013-04-21 20:11:00,
2013-04-21 16:22:00,51.0,22.0,-100.00,NNW,337,4.0,10.0,32,0.00,,,0.00,829.000000,,2013-04-21 20:22:00,
2013-04-21 16:32:00,51.0,22.0,-100.00,NNW,337,4.0,10.0,32,0.00,,,0.00,829.000000,,2013-04-21 20:32:00,
2013-04-21 17:02:00,52.0,22.0,-100.00,NW,318,4.0,12.0,30,0.00,,,0.00,665.000000,,2013-04-21 21:02:00,
2013-04-21 17:12:00,52.0,22.0,-100.00,NW,318,4.0,12.0,30,0.00,,,0.00,665.000000,,2013-04-21 21:12:00,
2013-04-21 17:22:00,52.0,22.0,-100.00,NW,318,4.0,12.0,30,0.00,,,0.00,665.000000,,2013-04-21 21:22:00,
2013-04-21 17:33:00,52.0,22.0,-100.00,NW,318,4.0,12.0,30,0.00,,,0.00,665.000000,,2013-04-21 21:33:00,
2013-04-21 18:03:00,48.0,21.0,-100.00,NNW,338,4.0,10.0,34,0.00,,,0.00,362.000000,,2013-04-21 22:03:00,
2013-04-21 18:12:00,48.0,21.0,-100.00,NNW,338,4.0,10.0,34,0.00,,,0.00,362.000000,,2013-04-21 22:12:00,
2013-04-21 18:22:00,48.0,21.0,-100.00,NNW,338,4.0,10.0,34,0.00,,,0.00,362.000000,,2013-04-21 22:22:00,
2013-04-21 18:33:00,48.0,21.0,-100.00,NNW,338,4.0,10.0,34,0.00,,,0.00,362.000000,,2013-04-21 22:33:00,
2013-04-21 19:02:00,46.0,21.0,-100.00,NNE,21,3.0,11.0,36,0.00,,,0.00,69.000000,,2013-04-21 23:02:00,
2013-04-21 19:12:00,46.0,21.0,-100.00,NNE,21,3.0,11.0,36,0.00,,,0.00,69.000000,,2013-04-21 23:12:00,
2013-04-21 19:22:00,46.0,21.0,-100.00,NNE,21,3.0,11.0,36,0.00,,,0.00,69.000000,,2013-04-21 23:22:00,
2013-04-21 19:32:00,46.0,21.0,-100.00,NNE,21,3.0,11.0,36,0.00,,,0.00,69.000000,,2013-04-21 23:32:00,
2013-04-21 20:02:00,40.0,27.0,-100.00,SSW,213,4.0,6.0,60,0.00,,,0.00,17.000000,,2013-04-22 00:02:00,
2013-04-21 20:12:00,40.0,27.0,-100.00,SSW,213,4.0,6.0,60,0.00,,,0.00,17.000000,,2013-04-22 00:12:00,
2013-04-21 20:22:00,40.0,27.0,-100.00,SSW,213,4.0,6.0,60,0.00,,,0.00,17.000000,,2013-04-22 00:22:00,
2013-04-21 20:32:00,40.0,27.0,-100.00,SSW,213,4.0,6.0,60,0.00,,,0.00,17.000000,,2013-04-22 00:32:00,
2013-04-21 21:01:00,34.0,28.0,-100.00,SSE,155,1.0,4.0,80,0.00,,,0.00,0.000000,,2013-04-22 01:01:00,
2013-04-21 21:12:00,34.0,28.0,-100.00,SSE,155,1.0,4.0,80,0.00,,,0.00,0.000000,,2013-04-22 01:12:00,
2013-04-21 21:22:00,34.0,28.0,-100.00,SSE,155,1.0,4.0,80,0.00,,,0.00,0.000000,,2013-04-22 01:22:00,
2013-04-21 21:32:00,34.0,28.0,-100.00,SSE,155,1.0,4.0,80,0.00,,,0.00,0.000000,,2013-04-22 01:32:00,
2013-04-21 22:02:00,31.0,27.0,-100.00,SSW,192,2.0,3.0,86,0.00,,,0.00,0.000000,,2013-04-22 02:02:00,
2013-04-21 22:12:00,31.0,27.0,-100.00,SSW,192,2.0,3.0,86,0.00,,,0.00,0.000000,,2013-04-22 02:12:00,
2013-04-21 22:22:00,31.0,27.0,-100.00,SSW,192,2.0,3.0,86,0.00,,,0.00,0.000000,,2013-04-22 02:22:00,
2013-04-21 22:32:00,31.0,27.0,-100.00,SSW,192,2.0,3.0,86,0.00,,,0.00,0.000000,,2013-04-22 02:32:00,
2013-04-21 23:02:00,33.0,24.0,-100.00,ENE,74,3.0,6.0,69,0.00,,,0.00,0.000000,,2013-04-22 03:02:00,
2013-04-21 23:11:00,33.0,24.0,-100.00,ENE,74,3.0,6.0,69,0.00,,,0.00,0.000000,,2013-04-22 03:11:00,
2013-04-21 23:22:00,33.0,24.0,-100.00,ENE,74,3.0,6.0,69,0.00,,,0.00,0.000000,,2013-04-22 03:22:00,
2013-04-21 23:33:00,33.0,24.0,-100.00,ENE,74,3.0,6.0,69,0.00,,,0.00,0.000000,,2013-04-22 03:33:00,